Total_Precipitation_Accumulation
2.41 2.63 2.51 2.37 2.36 2.34 2.57 2.82 2.79 2.43 2.14 1.98 1.83 1.69 1.71 1.68 1.70 1.61 1.54 1.48 1.31 1.21 1.15 1.10 1.08 1.08 1.17 1.32 1.51 1.69 1.81 1.92 2.04 2.15 2.33 2.56 2.78 3.00
2.36 2.48 2.47 2.42 2.62 2.58 2.63 2.79 2.93 2.80 2.29 2.09 2.02 1.73 1.82 1.53 1.62 1.56 1.50 1.46 1.29 1.18 1.13 1.10 1.07 1.04 1.05 1.10 1.21 1.33 1.47 1.58 1.69 1.79 1.82 1.86 1.93 2.06
1.98 2.07 2.09 2.33 2.52 2.47 2.56 2.64 2.78 2.90 2.53 2.31 2.39 2.19 2.17 1.95 1.74 1.56 1.35 1.34 1.23 1.18 1.11 1.06 1.03 1.01 1.04 1.02 1.00 1.07 1.17 1.27 1.34 1.47 1.62 1.73 1.78 1.83
1.92 2.00 1.92 2.09 2.21 2.24 2.42 2.53 2.73 3.02 2.82 2.57 2.55 2.49 2.38 2.18 1.98 1.74 1.35 1.16 1.19 1.28 1.13 1.02 0.98 0.97 1.01 1.02 0.98 0.95 0.97 1.01 1.05 1.13 1.29 1.45 1.58 1.71
1.74 1.70 1.69 1.87 1.91 2.04 2.19 2.20 2.37 2.72 2.76 2.49 2.40 2.62 2.49 2.27 2.29 1.98 1.72 1.65 1.24 1.23 1.16 1.00 0.95 0.92 0.94 1.01 1.02 0.96 0.92 0.93 0.97 1.04 1.17 1.32 1.42 1.51
1.50 1.38 1.42 1.59 1.65 1.78 1.82 1.97 2.13 2.26 2.45 2.42 2.32 2.46 2.50 2.38 2.56 2.34 2.14 1.98 1.64 1.32 1.31 1.11 1.02 0.98 0.97 0.97 0.98 1.01 1.03 1.02 1.03 1.08 1.11 1.16 1.27 1.36
1.32 1.17 1.11 1.16 1.24 1.37 1.36 1.58 1.84 1.98 2.06 2.18 2.21 2.30 2.52 2.62 2.49 2.48 2.33 2.14 1.97 1.81 1.77 1.38 1.10 0.97 0.97 0.98 1.00 1.05 1.08 1.09 1.12 1.19 1.28 1.33 1.36 1.41
1.34 1.30 1.15 1.04 1.03 1.08 1.11 1.18 1.34 1.49 1.68 1.92 2.00 2.10 2.34 2.61 2.65 2.67 2.58 2.37 2.15 1.97 2.09 2.04 1.69 1.42 1.22 1.01 1.01 1.04 1.13 1.21 1.25 1.30 1.39 1.52 1.65 1.64
1.31 1.29 1.09 0.96 1.03 1.00 1.06 1.07 1.12 1.17 1.25 1.48 1.61 1.67 1.92 2.24 2.56 2.62 2.70 2.54 2.31 2.25 2.37 2.43 2.49 2.25 1.68 1.33 1.26 1.11 1.14 1.24 1.30 1.36 1.43 1.47 1.62 1.77
1.24 1.28 1.28 1.22 1.13 1.16 1.18 1.12 1.02 1.03 1.05 1.01 1.08 1.29 1.47 1.72 2.10 2.29 2.59 2.78 2.63 2.53 2.59 2.65 2.66 2.88 2.38 1.84 1.66 1.41 1.33 1.35 1.41 1.43 1.46 1.53 1.59 1.68
1.29 1.29 1.28 1.21 1.22 1.18 1.18 1.18 1.06 0.99 0.97 0.96 0.95 1.06 1.26 1.40 1.68 2.03 2.31 2.52 2.60 2.67 2.73 2.78 2.69 2.83 3.11 2.66 1.97 1.61 1.38 1.32 1.36 1.41 1.46 1.57 1.64 1.63
1.39 1.37 1.24 1.12 1.18 1.13 1.03 1.09 1.08 1.08 1.12 1.08 1.07 1.10 1.16 1.31 1.55 1.81 2.07 2.34 2.38 2.45 2.31 2.28 2.30 2.44 2.87 3.07 2.70 2.09 1.63 1.46 1.35 1.32 1.35 1.47 1.61 1.48
1.37 1.37 1.31 1.19 1.01 0.97 0.94 0.96 1.03 1.12 1.22 1.24 1.24 1.26 1.33 1.36 1.41 1.59 1.88 2.13 2.20 2.00 1.78 1.90 2.06 2.17 2.25 2.44 2.61 2.55 2.18 1.84 1.62 1.47 1.41 1.40 1.45 1.42
1.61 1.58 1.52 1.36 1.14 1.01 0.92 0.96 1.04 1.03 1.09 1.19 1.17 1.15 1.21 1.26 1.31 1.47 1.67 1.81 1.91 1.90 1.85 1.96 2.10 2.13 2.21 2.23 2.27 2.33 2.36 2.20 2.01 1.87 1.79 1.77 1.60 1.53
1.78 1.79 1.69 1.47 1.25 1.06 0.97 0.97 0.98 0.95 1.01 1.08 1.04 0.99 1.03 1.11 1.19 1.35 1.52 1.69 1.74 1.69 1.70 1.82 1.94 1.96 2.07 2.13 2.08 2.00 2.07 2.14 2.14 2.11 2.13 2.11 1.98 1.82
1.76 1.71 1.63 1.52 1.32 1.20 1.14 1.05 0.96 1.02 1.05 1.04 1.06 1.05 1.10 1.20 1.29 1.34 1.46 1.60 1.77 1.72 1.68 1.72 1.78 1.89 1.87 1.75 1.68 1.56 1.56 1.67 1.83 1.98 2.18 2.36 2.40 2.32
1.88 1.75 1.67 1.55 1.44 1.37 1.30 1.22 1.14 1.13 1.10 1.08 1.12 1.11 1.10 1.15 1.22 1.25 1.35 1.41 1.48 1.50 1.53 1.60 1.72 1.85 1.85 1.77 1.65 1.48 1.43 1.37 1.42 1.71 2.03 2.27 2.30 2.16
1.53 1.52 1.54 1.51 1.44 1.38 1.32 1.24 1.19 1.15 1.14 1.13 1.13 1.11 1.06 1.07 1.14 1.25 1.36 1.35 1.31 1.31 1.37 1.43 1.64 1.84 1.88 1.72 1.42 1.32 1.31 1.28 1.28 1.48 1.67 1.76 1.76 1.66
1.24 1.32 1.29 1.29 1.29 1.27 1.25 1.18 1.14 1.12 1.17 1.18 1.12 1.12 1.11 1.12 1.14 1.23 1.34 1.37 1.31 1.28 1.38 1.51 1.64 1.76 1.74 1.55 1.35 1.11 1.13 1.16 1.29 1.45 1.54 1.53 1.43 1.30
1.16 1.21 1.22 1.23 1.25 1.27 1.27 1.22 1.21 1.22 1.25 1.25 1.23 1.22 1.23 1.24 1.25 1.27 1.33 1.38 1.34 1.32 1.39 1.50 1.54 1.57 1.58 1.48 1.38 1.24 1.04 1.10 1.17 1.28 1.38 1.41 1.31 1.17
1.26 1.30 1.30 1.29 1.31 1.35 1.35 1.31 1.31 1.27 1.24 1.28 1.27 1.26 1.24 1.24 1.29 1.30 1.36 1.43 1.40 1.36 1.32 1.32 1.39 1.50 1.62 1.80 1.70 1.46 1.28 1.14 1.15 1.18 1.26 1.39 1.40 1.34
1.22 1.28 1.29 1.29 1.31 1.34 1.32 1.29 1.30 1.27 1.23 1.23 1.22 1.23 1.24 1.23 1.24 1.30 1.34 1.36 1.33 1.29 1.25 1.27 1.42 1.60 1.68 1.73 1.64 1.51 1.46 1.38 1.31 1.26 1.20 1.15 1.17 1.20
1.21 1.24 1.21 1.18 1.20 1.21 1.16 1.15 1.20 1.25 1.26 1.26 1.23 1.21 1.19 1.17 1.16 1.22 1.28 1.32 1.34 1.35 1.37 1.42 1.46 1.54 1.58 1.60 1.64 1.60 1.50 1.46 1.46 1.45 1.36 1.17 0.91 0.81